Theta_e
346 346 350 356 359 361 361 362 356 358 360 336 331 336 338 348 348 349 350 350 350 350 348 346 348 349 354 352 350 352 350 354 355 351 351 355 353 352 355 353 353 353 355 353 351 351 351 351 350 350 350 350 351 351 352 352 353 353 353 351 351 351 351 350 349 346 343 342 342 342 341 342 342 343 346 347 348 347 347 347 349 349 347 347 347 346 346 345 345 345 345 345 345 346 346 348 349
350 352 356 359 359 361 361 361 356 354 349 329 331 338 340 353 349 349 352 349 350 348 348 347 348 348 348 348 348 350 351 352 353 353 353 353 353 354 355 354 355 354 355 354 353 353 351 350 350 350 349 351 350 351 352 351 352 352 353 352 352 352 351 349 347 344 343 342 342 342 341 342 343 344 346 348 347 347 347 347 349 349 347 346 346 346 345 344 344 344 345 345 345 346 347 347 348
354 356 360 359 359 361 361 359 353 342 336 327 331 345 352 354 350 350 348 348 349 345 347 347 347 347 348 349 350 352 351 350 351 351 351 352 354 355 354 353 355 354 354 354 354 354 352 349 350 351 351 351 351 353 353 352 352 352 352 351 351 351 350 349 346 343 342 341 341 342 342 342 343 345 347 349 347 346 347 349 349 347 345 344 344 345 345 343 342 342 342 342 344 345 346 346 345
359 359 359 358 361 361 361 360 352 330 324 328 330 346 356 351 349 347 346 347 347 346 347 348 348 348 351 351 350 353 352 349 350 350 352 353 355 356 355 354 354 355 354 354 353 354 353 349 351 353 353 352 351 353 353 352 353 352 352 351 351 351 350 349 345 344 342 340 341 342 341 342 343 346 349 349 347 345 346 348 348 346 343 342 342 344 344 341 340 340 340 340 341 343 345 346 345
361 359 356 358 364 361 359 355 344 327 324 333 333 346 353 347 349 346 346 346 345 347 345 347 348 347 350 351 350 353 352 349 350 353 354 354 356 356 356 354 352 354 354 353 353 353 352 348 350 353 353 351 351 352 352 352 352 352 352 351 350 349 350 348 344 344 342 340 342 342 341 343 345 348 348 347 345 344 346 347 346 344 343 342 343 343 342 339 339 340 340 341 341 342 345 345 344
360 357 355 357 361 357 352 334 325 327 330 341 339 347 351 346 348 345 346 346 346 345 344 347 346 347 350 351 349 351 351 350 352 354 355 355 356 356 356 354 352 353 353 353 354 353 351 348 350 351 351 350 350 350 351 351 352 352 351 350 349 348 348 346 344 343 342 341 342 341 342 344 346 348 347 344 343 345 345 345 344 344 343 344 343 341 339 339 340 341 340 342 342 343 344 343 343
359 357 358 358 357 356 348 325 320 328 334 345 343 346 350 347 347 345 347 346 346 344 345 347 345 349 351 350 350 350 351 352 353 354 355 355 355 356 356 354 354 353 353 354 355 354 349 345 346 348 349 350 350 350 351 352 352 352 350 349 348 347 346 345 345 345 344 343 342 342 343 344 346 348 344 342 343 345 344 343 344 343 344 344 342 339 339 340 341 341 340 342 343 343 343 343 344
357 357 355 355 356 352 339 323 326 333 336 343 342 346 346 346 346 346 347 345 347 345 345 347 346 350 351 351 351 352 353 352 354 355 355 355 355 355 355 355 354 354 353 354 356 355 348 342 345 349 351 350 350 351 351 351 351 351 350 350 349 348 346 345 346 346 345 344 344 344 344 345 346 345 342 342 343 342 343 344 344 343 343 342 340 339 340 341 342 343 342 342 342 342 343 343 343
356 356 352 352 352 338 327 325 331 337 340 340 340 344 344 344 346 346 346 346 346 345 346 347 348 352 353 353 352 352 353 354 354 355 355 354 355 355 355 355 354 354 354 355 355 355 349 346 348 351 353 350 350 351 351 351 350 351 351 350 350 348 347 347 347 347 346 346 347 346 346 347 346 342 342 344 342 341 343 345 343 341 340 339 338 340 341 342 343 344 344 343 342 343 343 343 342
355 353 352 352 342 324 320 323 329 336 340 340 340 342 343 344 345 346 346 346 346 346 346 347 349 353 354 354 353 352 352 354 355 355 355 355 356 355 355 355 355 354 354 355 356 355 351 349 350 350 351 350 350 351 351 351 350 352 351 351 351 350 349 348 348 347 347 348 349 348 347 347 343 341 344 345 341 342 344 343 341 339 339 338 339 341 342 343 344 343 343 343 342 345 345 344 343
361 355 349 342 330 319 318 322 327 335 339 339 341 341 342 344 345 346 345 346 346 345 345 348 351 351 353 355 353 352 354 354 355 356 355 356 356 356 355 355 355 355 354 355 356 356 352 349 349 349 348 350 351 352 352 351 351 353 352 353 352 351 349 348 348 347 345 345 346 346 345 343 341 340 343 342 340 344 343 340 339 338 338 338 339 340 341 342 343 342 342 342 342 345 345 345 344
361 359 351 336 327 324 326 325 328 335 338 337 339 341 341 343 345 346 346 347 346 345 346 349 349 350 355 356 354 352 355 355 355 356 356 357 356 356 355 354 355 356 355 356 357 356 355 352 350 348 348 350 351 352 352 351 352 353 353 353 352 351 349 349 348 346 344 343 343 342 343 342 341 340 340 340 341 344 341 338 338 337 337 338 337 338 341 341 343 343 341 341 342 344 344 344 344
356 359 349 334 332 333 333 329 332 336 336 336 337 340 340 342 344 346 346 346 345 346 347 349 347 350 354 354 353 352 354 355 356 355 355 356 355 355 354 354 355 356 357 357 357 357 357 355 353 352 349 349 350 352 352 351 351 352 353 352 351 350 349 349 347 345 344 344 345 344 343 343 342 340 340 340 341 342 339 338 339 337 336 336 336 338 341 342 343 343 341 341 341 341 342 343 342
356 360 343 337 340 338 336 330 333 331 330 336 336 338 341 341 342 343 345 346 345 346 347 347 346 350 353 354 353 350 352 355 355 355 355 355 355 355 354 354 356 357 357 358 358 358 357 355 356 354 351 351 352 352 352 351 350 351 352 352 350 349 348 347 347 347 345 345 347 346 345 343 342 341 342 342 341 340 338 338 337 335 335 336 337 340 341 343 343 342 340 341 340 340 340 340 340
355 354 341 341 338 336 337 333 335 328 328 336 336 337 339 339 341 342 344 345 346 345 345 347 347 351 352 353 353 350 354 355 355 355 355 355 355 355 354 354 355 356 357 358 358 358 357 355 357 355 353 355 354 353 353 351 350 351 352 352 351 349 348 348 348 348 346 346 346 345 344 343 342 342 342 340 339 337 341 347 342 335 335 336 338 340 341 342 342 340 339 340 340 339 338 338 338
348 348 348 341 332 331 335 338 338 330 331 337 336 337 338 337 340 341 342 343 345 343 344 347 347 349 348 350 352 352 355 355 355 355 356 356 356 355 355 355 354 355 356 356 356 356 356 356 356 356 356 356 355 355 354 352 349 351 353 351 351 349 349 349 348 346 345 345 345 343 342 344 347 347 344 343 343 339 343 350 345 336 335 335 338 341 343 343 342 340 340 340 340 340 339 341 342
344 349 349 335 331 331 335 342 338 332 334 336 337 338 338 338 339 341 342 342 343 342 343 346 345 346 346 348 352 354 355 355 356 356 357 357 357 356 354 355 355 356 356 356 357 356 356 356 356 356 357 356 356 356 355 355 350 351 353 350 350 350 349 349 346 344 344 344 343 342 343 349 354 352 349 350 350 346 347 347 339 335 335 335 338 342 343 343 341 340 340 340 340 341 343 347 348
347 356 348 332 333 336 338 344 339 338 339 337 338 337 337 338 340 339 340 341 341 342 344 343 343 345 347 350 353 354 355 356 357 357 357 357 356 355 354 355 356 357 357 358 358 357 357 357 357 357 358 356 356 356 355 357 352 351 354 351 350 350 349 346 346 347 348 349 347 347 349 352 354 353 353 353 353 353 351 346 338 336 335 335 339 344 344 342 340 341 341 340 341 344 347 350 349
346 353 346 336 339 339 340 343 339 342 340 339 339 337 338 337 338 337 339 342 341 342 344 343 344 346 348 351 353 355 355 356 356 356 357 356 356 355 355 356 356 356 357 357 357 357 357 357 357 357 358 356 356 356 355 357 354 353 356 354 352 352 351 348 350 353 353 355 353 352 354 353 353 354 355 353 351 349 347 344 342 342 342 343 344 346 346 343 342 343 343 342 343 346 349 350 351
344 352 348 342 341 340 340 342 340 341 340 341 340 338 338 336 337 337 339 341 339 342 343 343 346 348 348 349 353 355 355 356 355 355 355 355 355 355 355 356 356 356 355 356 356 355 356 355 356 356 356 356 356 356 356 357 355 355 358 356 355 355 354 352 354 355 354 356 357 356 355 355 355 356 355 350 346 345 345 347 348 348 350 350 349 349 349 347 346 347 348 347 346 348 349 349 350
345 356 356 344 338 341 338 340 340 340 340 342 341 340 339 337 337 337 340 340 338 340 341 342 346 348 348 347 351 354 355 355 354 354 354 355 355 354 355 355 356 356 355 354 355 355 355 354 355 355 356 356 356 356 356 357 356 356 358 357 356 355 355 354 354 355 355 356 358 356 354 355 356 354 354 351 348 348 350 350 348 349 352 352 350 350 351 350 349 349 351 350 349 349 349 350 349
344 353 355 340 340 342 338 339 340 339 340 340 340 341 339 337 337 337 340 340 338 339 339 342 345 347 348 348 349 352 354 353 354 354 353 355 354 354 354 354 355 355 355 355 355 356 355 355 355 356 357 357 357 356 356 357 357 356 356 355 355 354 355 354 354 354 355 356 356 356 354 354 355 353 353 353 352 352 351 350 348 349 352 351 350 350 351 351 350 350 350 351 351 350 349 350 350
342 344 343 340 342 339 339 339 338 339 339 340 339 340 339 337 337 338 339 339 338 337 338 340 344 347 349 350 350 350 351 351 353 354 352 353 352 353 354 354 354 355 355 355 355 355 355 355 355 355 357 357 357 356 355 357 357 356 354 353 355 355 354 355 355 354 354 356 355 355 354 354 354 353 353 354 354 353 351 350 349 349 350 350 350 350 350 350 350 350 350 351 351 351 350 350 350
340 339 341 341 340 340 340 337 339 339 338 340 339 339 339 338 338 337 338 338 337 337 337 339 344 348 348 349 349 348 349 350 352 353 352 352 351 352 353 353 354 355 355 355 355 355 355 354 355 355 357 356 357 357 356 357 356 355 355 354 355 354 354 354 354 354 355 357 356 356 355 353 354 353 353 354 353 353 352 351 350 351 350 349 351 350 349 350 350 350 351 351 351 352 350 349 349
337 338 339 340 340 341 339 338 339 338 339 341 339 340 338 338 338 336 337 336 336 338 337 339 344 346 347 347 347 349 350 351 353 352 352 352 352 352 352 352 353 354 354 355 355 355 354 354 356 356 357 357 357 357 356 356 355 354 355 355 355 354 354 354 354 354 355 357 357 356 356 354 353 353 352 353 353 354 353 352 352 351 350 350 351 350 349 351 351 350 351 351 351 351 350 348 347
335 338 338 339 340 340 339 339 338 338 339 340 340 341 339 338 337 336 338 336 336 338 337 340 344 344 346 347 347 350 350 350 352 351 351 351 351 351 351 352 352 352 353 355 355 355 355 354 356 356 357 357 356 356 355 356 356 356 357 356 355 355 354 354 355 355 354 355 355 357 357 355 355 353 353 353 354 354 354 354 353 352 352 351 350 350 350 351 351 350 351 351 351 350 349 347 345
335 337 337 339 339 339 340 338 338 338 339 340 341 342 340 339 338 337 338 336 337 338 337 339 342 344 345 346 347 350 350 350 352 351 351 351 351 351 352 351 351 352 352 353 354 354 355 354 355 355 356 357 356 356 355 354 357 358 358 357 357 357 355 354 355 354 354 354 353 359 360 357 355 354 354 355 355 355 355 354 353 353 352 351 350 351 351 351 351 351 353 352 350 350 349 346 344
335 337 337 338 338 338 338 337 338 337 338 340 341 342 342 340 338 338 338 336 338 338 339 340 341 343 345 346 347 350 351 351 351 351 351 352 352 352 351 352 352 352 353 353 353 354 354 354 353 355 356 357 356 355 355 354 356 358 359 358 357 357 357 356 355 354 354 354 355 360 362 359 356 356 358 358 356 355 354 353 353 353 352 351 351 352 352 352 352 352 353 354 351 350 347 343 343
333 334 335 336 337 338 337 336 336 336 339 339 341 340 341 343 339 338 338 336 337 339 339 341 341 342 344 347 348 350 351 350 351 351 351 352 352 352 351 352 352 352 353 354 354 354 353 353 353 354 354 356 357 354 354 355 355 358 359 358 357 358 359 358 356 356 355 355 357 360 363 361 358 358 359 359 357 355 355 354 353 352 352 352 352 354 354 352 352 352 351 353 351 348 345 342 342
333 333 333 334 332 333 336 335 336 337 337 339 340 332 335 346 341 338 339 336 338 340 340 341 341 342 344 346 348 350 351 350 352 352 352 353 352 351 350 352 353 352 354 354 354 354 353 353 353 354 354 355 357 354 353 355 356 357 358 358 358 358 359 358 357 357 356 356 357 360 363 362 358 357 359 360 359 356 354 355 354 353 352 353 354 355 355 351 350 351 350 351 349 345 343 343 341
334 332 331 333 324 326 336 335 334 337 337 340 341 328 332 344 342 340 339 336 338 339 340 341 340 342 343 345 348 350 351 351 352 352 352 353 352 352 351 352 352 352 353 354 354 354 353 353 353 354 354 355 357 356 353 354 355 356 357 357 357 358 359 358 358 356 357 357 355 358 361 362 359 357 359 360 358 357 355 354 354 352 352 353 353 352 354 352 349 350 350 349 347 344 343 342 341
334 325 321 328 322 325 337 335 335 338 338 342 340 329 334 341 341 341 339 337 339 340 340 340 340 341 342 344 347 348 351 352 353 353 351 352 352 352 352 353 353 353 353 353 354 354 354 353 353 354 355 356 357 357 355 354 355 354 354 354 355 358 358 357 357 356 356 356 355 356 359 363 362 357 356 354 354 357 356 353 352 353 354 354 352 353 355 352 348 349 350 348 345 344 343 343 341
332 326 316 320 321 323 333 334 336 339 340 342 339 334 337 339 340 340 341 339 337 339 341 341 340 340 342 343 345 347 350 351 352 352 352 352 353 352 353 354 354 353 353 353 354 354 355 354 354 354 354 356 357 357 357 355 355 355 354 354 355 357 358 356 356 356 356 355 355 356 357 362 363 357 353 351 353 357 357 355 354 354 355 355 354 354 354 351 349 349 349 347 345 344 344 342 340
323 327 319 321 325 323 326 332 337 338 342 343 341 341 341 340 340 340 341 340 337 339 340 341 341 340 343 343 343 346 349 350 350 352 352 352 353 354 354 354 354 354 353 354 355 355 356 355 355 355 354 356 357 358 358 357 356 356 355 355 356 357 358 356 356 357 357 356 356 356 359 362 362 357 352 352 356 357 357 357 356 353 353 355 355 353 352 352 350 347 347 345 344 344 344 342 340
318 320 318 320 325 324 324 330 336 339 342 343 341 342 343 343 342 341 342 341 339 339 339 341 341 341 344 344 343 345 348 350 351 352 353 352 353 355 355 354 353 353 353 354 356 357 358 357 356 357 356 354 356 357 358 357 356 356 356 355 355 357 358 357 357 358 358 358 358 359 361 363 361 360 356 356 359 358 357 358 356 354 353 354 354 352 351 350 348 346 346 345 345 345 344 343 341
326 325 322 319 320 323 330 335 337 338 341 343 343 340 343 345 344 345 344 343 343 341 340 341 341 342 344 345 344 345 347 349 352 353 352 353 354 355 356 354 353 353 354 355 357 359 360 359 357 358 358 355 354 356 358 357 355 355 356 355 355 357 358 358 358 358 359 359 359 360 363 363 362 362 361 359 359 358 357 357 357 357 354 353 353 351 349 348 347 346 346 345 345 345 345 343 340
332 330 327 324 321 322 331 338 337 340 338 339 345 341 343 345 344 348 346 346 346 343 343 343 342 343 344 346 345 345 347 347 350 352 352 352 354 356 357 355 353 353 354 356 358 359 361 359 358 359 359 357 354 356 358 357 355 355 355 356 355 357 359 359 359 357 357 356 357 361 364 364 362 361 361 360 360 358 357 358 359 357 354 353 352 349 348 347 346 345 344 345 344 343 343 340 339
333 329 325 323 323 324 333 338 337 339 336 336 344 342 342 344 343 345 345 346 346 345 345 344 343 344 344 346 346 346 347 346 348 351 352 352 354 356 357 356 354 354 355 356 358 359 360 360 358 359 359 359 356 356 359 359 357 355 356 356 355 354 357 358 359 358 356 356 357 362 364 364 363 362 360 359 359 359 359 359 360 358 354 351 350 348 347 346 345 344 344 343 342 341 340 338 339
331 330 325 320 324 327 331 336 338 339 335 337 343 340 340 345 343 344 346 347 348 347 346 345 345 346 346 346 347 347 347 347 348 349 351 353 353 356 357 356 355 355 355 356 358 359 361 361 359 359 359 359 358 356 359 361 360 357 357 357 355 354 355 356 358 359 359 358 359 362 364 364 364 363 361 360 359 358 357 357 357 356 353 349 348 347 346 346 345 343 342 341 341 340 340 340 341
330 329 321 318 327 325 321 329 339 340 337 340 343 339 340 345 344 344 347 348 350 348 346 347 347 347 347 346 347 347 348 349 349 348 350 352 353 356 356 357 355 355 355 356 358 358 360 361 360 360 359 359 359 358 358 360 360 359 359 359 358 356 355 355 358 360 361 361 359 361 364 365 364 360 358 357 356 354 353 352 352 352 350 348 348 347 345 344 343 342 342 342 342 340 340 340 341
328 330 324 322 328 326 323 332 340 339 338 343 341 331 332 343 346 345 346 347 349 348 348 348 347 348 348 347 347 348 348 349 349 348 350 351 353 354 355 357 355 354 355 355 357 358 359 360 360 360 360 359 359 359 360 360 360 361 361 362 360 359 359 357 358 359 360 360 358 358 361 364 362 357 355 353 352 351 351 351 350 350 349 348 348 346 343 342 342 342 342 343 343 341 339 338 338
322 329 331 329 332 332 331 336 336 328 326 336 338 322 323 337 344 347 347 347 348 349 351 350 350 349 349 350 349 349 349 349 349 349 350 352 353 353 354 356 356 354 355 355 356 357 358 359 360 360 361 360 360 360 361 361 361 361 363 364 362 360 360 359 359 359 356 356 354 353 356 358 357 354 353 352 352 350 351 351 351 350 349 348 347 345 343 342 342 342 341 342 341 341 341 339 337
316 326 333 334 335 333 331 332 328 318 320 335 339 325 321 329 337 346 347 347 350 349 351 350 351 350 348 350 350 350 350 349 350 350 350 352 354 353 353 355 357 356 356 357 357 357 358 359 360 361 362 362 361 361 361 361 362 361 362 363 360 358 358 357 358 357 354 353 352 351 351 353 354 354 352 352 351 350 350 351 350 349 347 346 346 345 343 342 341 341 341 341 341 342 342 340 338
317 328 333 334 334 332 332 330 324 322 326 334 338 332 323 321 330 344 345 345 349 349 351 352 350 351 348 348 350 350 352 350 350 352 351 353 354 354 353 355 357 356 356 358 358 358 358 359 360 362 362 362 361 361 361 362 362 362 362 362 360 358 356 355 356 356 354 352 351 351 351 351 354 354 352 352 352 349 349 351 351 349 346 345 344 344 343 341 340 342 342 342 342 343 342 341 340
323 331 333 333 334 333 333 330 323 327 326 321 326 330 324 320 329 343 345 340 344 348 350 351 348 349 348 348 348 349 351 351 350 351 352 353 355 355 354 354 356 357 356 357 359 358 358 359 360 362 362 362 361 362 362 362 363 363 362 361 361 359 358 355 354 354 354 353 353 353 353 353 354 355 353 352 352 351 350 350 350 349 347 345 343 341 340 340 341 342 342 342 342 342 341 340 340
329 331 332 333 334 334 334 330 322 323 323 317 320 324 323 321 325 334 337 335 340 346 347 348 348 350 351 352 351 350 352 353 351 351 353 354 354 355 354 353 355 356 356 357 358 358 358 360 361 363 363 363 362 363 363 363 363 363 362 361 360 359 358 357 354 353 354 355 355 355 356 355 354 354 353 352 352 352 351 350 350 349 347 344 342 340 339 339 340 341 341 341 341 340 340 340 339
329 329 330 330 332 333 332 330 324 319 319 319 320 322 324 321 322 328 335 335 341 347 346 346 347 350 351 352 351 350 352 354 352 351 352 354 354 355 354 354 354 356 355 356 357 358 358 360 362 363 364 364 364 363 364 364 363 363 362 361 361 360 360 359 357 356 355 356 357 356 356 355 355 354 352 351 351 351 350 350 349 347 347 344 340 340 339 338 339 339 340 340 340 340 339 339 339
328 329 328 321 322 325 323 321 321 317 317 319 321 324 322 317 321 331 339 342 342 344 346 344 345 348 350 352 351 350 350 352 352 352 353 355 355 354 355 355 354 356 355 354 357 357 358 360 362 364 365 365 365 364 364 364 363 363 362 362 361 361 361 360 359 358 356 356 358 357 355 355 355 353 352 350 350 350 350 350 348 345 345 344 340 339 340 339 338 338 339 339 340 340 340 340 339
328 326 321 314 313 317 317 315 316 316 316 319 323 324 320 318 326 337 342 341 341 343 344 342 342 346 349 350 350 350 349 349 351 353 352 355 356 354 355 356 355 356 355 355 355 356 358 360 361 363 366 366 365 364 364 365 364 363 362 362 362 361 362 361 360 358 357 357 357 356 356 355 355 354 352 350 349 348 348 349 347 344 344 343 339 339 339 339 339 338 338 339 339 339 339 340 340
325 320 315 313 313 315 317 316 315 316 315 318 323 324 318 318 328 341 343 339 340 341 341 341 340 342 345 348 350 349 349 350 352 354 352 354 357 356 356 357 356 356 356 355 354 356 358 359 360 363 366 366 366 365 364 365 365 364 363 362 362 362 362 361 360 359 358 358 357 357 356 355 355 354 352 350 349 348 347 347 347 346 343 341 339 340 340 340 340 340 338 338 338 338 338 339 339
324 326 323 315 312 315 316 315 315 316 315 316 321 322 316 317 328 341 341 338 340 339 340 341 340 340 341 345 349 349 349 351 353 354 354 353 356 358 358 358 357 356 356 354 354 356 358 359 361 363 365 367 367 365 365 366 365 364 363 363 363 363 361 361 361 359 358 358 358 357 356 355 355 354 353 351 350 348 346 346 346 345 343 340 340 341 341 340 341 340 340 338 336 336 338 338 338
323 329 323 315 317 319 315 315 315 315 315 315 316 318 322 328 337 341 339 339 339 338 339 339 339 340 339 340 347 348 346 348 351 354 355 354 356 359 359 358 358 357 356 355 354 355 358 360 362 364 365 367 367 367 367 366 366 365 365 364 363 363 361 361 361 360 359 359 358 358 357 356 355 354 353 352 351 349 347 345 344 344 342 342 342 342 341 341 341 340 340 338 336 336 337 337 337
322 322 317 320 329 326 314 313 316 314 314 316 315 315 322 328 332 337 340 339 339 339 338 337 338 340 339 340 347 351 349 348 350 354 357 355 355 358 360 358 359 358 357 356 355 356 358 359 361 364 366 367 368 368 368 368 367 366 365 365 363 363 362 361 360 360 359 359 359 359 357 356 355 354 353 352 351 349 348 345 344 344 343 343 343 342 342 341 341 340 339 338 337 336 336 337 338
321 316 319 327 330 328 319 314 315 315 314 315 313 313 316 316 321 334 342 339 339 340 338 338 338 338 338 338 342 350 352 351 352 355 358 357 355 357 360 359 357 358 358 357 357 357 358 358 359 364 367 368 367 368 369 368 368 368 367 366 365 364 363 361 360 360 360 360 359 359 357 355 354 354 353 352 352 350 348 346 345 345 344 344 343 342 342 341 340 340 339 338 338 336 336 337 337
323 320 326 325 317 316 317 314 314 315 315 315 313 313 314 313 317 331 339 338 339 340 339 338 337 336 338 339 340 347 350 350 352 356 358 358 356 356 359 359 357 358 360 359 357 358 359 358 360 364 367 367 366 367 369 369 369 369 367 366 366 365 364 362 361 360 360 361 361 359 357 354 352 355 355 354 352 350 348 347 346 346 344 344 343 342 342 341 339 339 339 338 338 336 336 336 336
323 323 327 326 319 316 316 316 315 314 314 315 314 313 314 318 326 334 338 340 339 340 340 339 336 336 337 337 339 343 348 351 353 354 357 357 357 357 359 358 356 358 360 360 358 358 359 358 359 363 365 366 365 364 367 370 370 368 367 367 366 366 365 363 361 361 361 362 361 360 358 354 353 355 356 355 353 350 348 347 347 345 343 343 342 341 341 341 339 339 339 338 337 336 336 336 335
318 316 317 319 321 320 319 317 314 314 314 314 316 314 313 324 335 337 338 340 338 339 340 338 337 336 336 338 339 340 348 353 353 354 356 357 357 358 359 358 355 356 359 359 358 358 359 358 359 360 361 364 363 361 364 369 370 368 368 368 367 368 366 363 362 362 362 362 361 361 359 356 356 356 357 356 354 351 349 347 346 344 342 343 342 341 340 340 339 339 339 339 338 337 337 337 336
320 316 315 317 319 317 315 315 315 315 313 313 315 314 315 327 338 337 337 339 337 338 338 337 337 336 337 339 337 340 349 353 355 354 354 356 358 358 359 358 355 353 357 359 356 357 357 355 357 357 356 360 361 359 362 368 370 369 369 369 368 368 367 365 364 362 362 362 361 361 360 358 358 358 357 356 354 350 348 347 346 344 343 342 342 341 340 339 339 338 339 339 338 338 337 337 336
Wind_Speed
17 18 15 11 11 8 4 2 3 1 2 1 5 5 7 9 10 9 9 7 7 7 7 8 9 8 6 8 10 9 8 8 6 4 5 8 14 15 14 16 18 19 20 18 18 19 17 17 18 17 17 16 17 18 19 18 18 17 17 17 16 15 15 15 14 15 14 13 13 13 14 14 14 14 14 14 14 14 14 13 12 13 13 13 12 12 12 12 11 11 12 12 12 12 12 12 12
16 16 14 10 9 6 1 2 2 1 3 4 6 5 8 7 8 10 8 8 9 9 9 9 10 11 13 12 10 9 10 12 12 9 9 16 18 15 17 17 17 19 19 18 18 18 17 17 17 18 17 16 16 17 18 18 17 17 16 15 15 14 14 14 14 14 14 13 13 13 13 14 14 14 14 13 13 13 13 12 12 12 12 12 11 11 11 11 11 10 10 11 11 12 12 12 11
15 13 12 10 8 6 1 2 3 2 1 5 5 6 9 6 9 11 10 12 12 10 9 9 10 10 11 12 9 8 10 13 15 12 11 17 16 15 19 19 19 19 19 18 17 17 17 17 17 18 17 16 16 16 16 16 16 16 15 15 14 13 13 14 14 14 13 12 12 12 12 13 13 13 12 12 12 12 12 12 12 12 11 11 10 11 11 11 10 9 9 9 10 10 11 11 11
13 10 11 8 5 5 3 4 4 1 6 5 3 8 10 8 11 12 12 13 11 9 8 9 8 8 9 11 10 10 11 12 14 12 10 14 15 17 20 20 21 19 19 17 16 17 18 18 18 17 16 17 17 16 16 15 15 15 14 14 13 13 13 14 14 13 13 12 11 11 12 12 12 12 11 11 11 11 11 11 11 11 10 9 10 10 10 10 9 8 8 8 9 9 10 10 10
12 10 11 6 2 3 4 4 1 4 6 4 4 8 10 10 12 12 12 11 9 8 8 6 6 9 12 10 7 7 10 12 14 14 12 16 18 20 20 20 22 19 19 19 18 18 19 20 18 16 16 17 17 16 16 15 15 14 14 14 13 13 14 14 13 12 12 11 10 11 11 11 11 11 11 10 11 10 10 10 10 9 9 9 9 9 8 8 8 8 8 9 9 10 9 9 9
13 10 10 6 3 4 6 2 5 5 6 6 6 7 10 11 12 12 11 10 8 8 6 4 8 12 11 10 8 8 8 11 13 13 16 19 20 20 20 20 22 21 20 20 19 19 22 21 19 17 16 16 16 16 16 15 14 14 14 13 13 14 14 14 13 12 11 10 9 10 10 10 10 10 10 10 10 9 9 9 9 9 8 8 9 8 7 7 7 7 8 9 9 10 9 9 9
10 5 6 4 4 6 5 2 7 5 7 8 8 8 10 11 10 11 10 9 8 7 5 6 10 11 9 8 9 10 11 12 12 15 18 20 21 21 19 19 22 23 22 20 18 19 22 22 20 18 16 16 16 16 16 15 14 14 14 14 14 14 14 13 12 11 10 9 9 9 9 9 9 9 9 9 9 8 8 8 8 8 7 8 8 7 6 6 6 7 8 8 9 9 9 10 9
7 2 2 3 5 6 2 5 7 6 8 9 9 9 9 9 8 9 8 7 7 7 7 9 9 9 10 10 9 10 13 15 16 19 21 21 21 20 19 19 21 23 21 19 19 20 22 22 20 17 16 16 16 16 16 15 15 15 14 14 14 14 14 13 12 10 10 9 8 8 8 8 8 9 9 8 8 7 7 8 8 7 6 6 6 6 6 6 7 9 9 9 9 9 9 9 8
7 3 2 4 6 3 4 6 7 7 9 9 9 8 7 7 6 7 7 7 7 8 9 10 8 9 12 13 11 10 13 17 19 20 20 21 21 19 19 19 19 22 21 19 20 20 21 21 19 17 16 16 15 15 15 16 15 15 14 14 14 13 13 12 11 10 10 9 8 8 7 7 7 7 8 7 6 6 7 7 7 6 5 5 5 6 7 8 9 9 10 11 10 10 10 8 7
5 3 3 4 4 2 5 5 7 8 9 9 9 8 6 6 5 5 6 9 9 8 10 10 11 12 12 13 10 9 13 17 19 19 20 21 20 19 19 19 19 20 21 20 20 19 20 20 19 17 16 15 15 15 15 16 15 14 14 13 12 12 12 11 10 10 9 8 7 7 6 6 6 6 7 6 5 5 6 6 5 4 4 4 5 7 8 9 9 10 11 11 11 11 10 7 7
2 3 5 3 1 3 4 6 7 7 9 9 9 8 6 5 5 5 6 9 9 9 11 10 12 14 13 11 8 10 16 17 19 20 20 19 19 19 19 19 18 18 20 21 20 19 20 19 18 17 16 15 14 15 15 15 14 13 13 13 11 11 11 10 10 9 9 8 7 6 6 5 5 5 5 5 5 5 5 4 4 3 4 5 6 8 9 9 10 11 11 11 11 10 9 8 8
1 4 6 2 2 3 4 6 8 8 8 8 9 7 6 5 5 6 8 9 9 9 11 10 12 13 12 10 8 13 17 16 18 19 19 18 18 19 19 19 18 17 19 19 19 18 19 19 18 17 16 15 14 15 15 15 14 13 13 12 11 11 10 10 9 8 8 7 6 6 5 5 4 4 4 4 4 4 4 3 3 3 4 6 8 9 10 10 11 11 11 11 10 9 9 9 8
1 5 4 2 2 3 4 5 6 7 7 8 9 7 6 5 5 7 7 9 9 9 10 12 14 12 10 9 9 13 15 16 18 19 18 18 18 19 19 19 18 18 18 18 18 18 18 18 17 16 16 16 15 15 15 15 14 13 12 11 11 10 10 9 8 8 7 6 6 6 5 5 4 3 3 3 2 3 2 2 2 3 4 7 9 10 10 11 11 11 10 10 10 9 10 9 9
1 6 4 1 2 2 3 3 5 6 7 9 8 7 5 5 7 7 6 9 9 9 10 12 14 12 11 10 9 10 13 18 19 18 18 17 18 18 19 19 19 17 17 17 17 18 18 18 17 17 17 16 15 15 15 15 14 13 12 11 10 10 9 9 8 7 7 7 6 6 5 4 4 3 2 2 2 1 2 2 1 2 4 7 9 11 10 10 10 10 10 10 9 9 9 9 9
6 6 4 0 0 1 2 2 1 3 8 9 8 7 5 6 7 7 7 8 8 10 10 10 9 8 12 11 9 12 16 21 19 19 18 17 18 18 19 19 19 17 16 17 17 18 17 17 17 17 17 16 16 15 15 14 14 13 12 11 10 10 9 8 8 7 7 7 6 6 5 4 3 3 2 1 1 0 2 2 1 3 4 7 10 11 10 11 10 10 10 10 9 9 8 7 9
7 4 3 1 1 2 2 2 2 3 9 10 9 7 7 8 6 6 7 7 9 8 9 9 6 5 12 13 12 18 22 23 20 20 19 18 18 18 18 17 18 18 17 18 17 17 17 17 17 17 17 17 16 15 15 15 15 13 12 11 11 10 9 9 8 8 7 7 6 5 5 4 3 3 1 1 1 1 2 2 3 4 5 7 9 10 11 11 11 10 10 9 9 9 8 6 8
7 3 4 2 1 1 3 3 2 4 9 10 9 7 8 9 5 6 6 7 11 9 8 8 6 5 11 14 18 24 25 23 21 21 20 18 18 17 17 16 16 16 16 16 16 16 17 17 17 17 17 17 16 15 15 15 14 13 12 12 11 10 10 9 9 8 7 7 6 5 5 4 5 4 2 3 3 2 1 2 3 5 6 7 8 9 10 10 10 10 9 9 9 9 8 7 8
6 2 4 1 1 2 3 4 4 5 8 10 9 6 8 9 7 7 6 8 12 9 8 8 7 7 12 19 23 25 25 24 23 22 20 18 17 17 16 16 16 15 16 15 15 15 16 17 17 17 17 17 16 15 15 15 14 13 12 12 11 11 10 10 9 9 8 7 7 6 5 5 5 3 3 4 3 3 4 4 4 6 7 7 7 7 7 8 8 9 9 9 8 8 8 6 7
3 1 5 2 2 3 3 4 5 5 7 9 8 6 7 9 8 7 8 10 12 10 11 10 9 11 15 23 25 24 25 23 23 22 21 19 17 17 17 16 15 16 16 15 15 16 16 17 16 16 17 17 16 14 14 14 14 14 13 13 12 12 11 10 10 10 9 8 8 7 7 7 6 3 4 6 5 5 6 4 5 6 5 5 5 6 5 7 7 7 9 9 7 7 7 3 4
1 2 5 3 3 2 3 3 4 6 7 9 8 6 7 8 7 7 8 11 11 9 11 11 11 14 17 21 23 23 24 23 23 22 20 19 18 17 17 16 16 16 16 15 15 16 16 16 16 16 16 16 15 13 13 13 14 14 13 13 12 12 12 12 11 10 10 9 9 8 7 7 6 6 6 6 5 5 6 3 4 4 3 4 4 4 4 5 6 6 7 8 7 5 5 4 4
3 4 7 2 4 1 5 4 4 7 6 8 8 6 7 8 7 6 7 9 8 8 11 12 12 15 18 21 22 22 22 22 22 21 20 19 17 17 16 16 16 16 16 16 15 15 16 16 16 15 16 16 14 13 13 13 14 14 13 13 12 12 12 12 11 11 10 10 9 8 7 6 5 6 5 4 3 3 4 3 5 3 1 3 2 3 4 3 5 5 4 6 6 5 5 5 6
6 8 9 1 3 2 5 4 5 7 7 10 8 7 8 7 7 6 7 6 5 8 11 13 15 16 19 20 21 21 20 21 21 21 20 19 18 16 16 16 16 16 15 15 15 15 16 15 15 15 15 16 14 13 13 13 13 13 12 13 12 11 11 11 11 11 10 10 10 8 7 6 5 5 4 3 3 3 4 4 6 4 2 3 1 3 4 3 4 4 5 6 6 7 6 6 6
7 6 6 3 3 1 3 4 6 5 6 9 8 8 8 7 8 7 7 4 3 9 12 13 15 17 20 20 20 20 19 19 20 21 21 20 19 17 17 17 16 16 15 15 16 15 16 15 15 15 15 15 14 13 12 12 13 12 12 12 12 11 11 10 10 10 9 9 9 8 7 6 5 5 5 4 4 4 4 4 6 4 3 5 2 3 3 3 5 5 6 6 7 7 6 6 6
8 6 6 6 5 3 1 2 6 6 4 6 6 8 9 8 8 8 8 4 4 8 13 13 15 18 20 20 19 20 19 19 20 21 21 20 19 18 17 17 16 16 15 15 16 15 16 16 16 15 15 15 14 13 12 11 12 11 11 11 11 10 10 10 9 9 8 8 8 7 6 6 5 5 4 4 4 4 4 4 5 4 4 5 3 3 4 4 5 5 5 6 7 7 7 7 7
10 9 6 6 6 5 4 4 5 7 5 6 7 8 9 7 7 8 9 8 5 7 13 14 16 18 19 19 19 19 18 19 20 21 21 19 19 19 17 16 16 16 16 15 15 16 17 17 17 16 15 15 14 13 12 11 11 11 10 10 10 10 9 9 8 8 8 7 8 7 7 6 5 5 4 4 4 4 3 4 5 5 4 4 3 4 4 4 5 5 5 6 7 7 7 7 8
10 10 8 7 7 7 6 7 6 6 6 7 8 8 8 8 7 8 9 10 8 8 13 14 16 17 17 18 19 18 18 18 19 21 21 20 20 20 18 17 17 17 17 16 15 16 17 17 17 16 15 15 14 13 13 11 11 11 10 10 10 9 9 8 7 8 8 7 8 7 7 6 6 6 4 3 4 3 4 5 5 5 4 4 5 5 4 4 5 5 5 6 6 7 7 7 8
8 9 9 9 9 9 8 8 7 7 7 9 10 8 9 9 6 7 10 11 9 11 13 14 16 16 16 17 17 17 17 19 20 20 20 20 20 19 18 17 17 17 17 17 16 15 16 17 17 17 16 15 15 14 13 12 11 10 10 10 10 9 9 8 8 8 8 8 7 7 7 7 6 6 5 3 4 4 5 5 5 5 5 5 5 5 5 5 5 5 5 5 6 6 7 7 7
7 7 9 11 11 11 10 9 8 7 8 11 10 9 10 10 6 7 12 12 10 12 13 15 15 15 15 16 16 14 15 18 20 20 19 19 18 19 19 18 17 17 17 17 17 16 17 18 18 18 17 16 15 14 13 13 12 11 10 10 10 9 9 9 9 9 8 7 6 6 6 7 7 6 4 4 5 5 5 6 6 6 6 6 6 6 5 6 5 5 4 4 6 6 6 7 6
9 8 10 11 13 11 11 10 9 9 8 11 10 9 10 11 8 8 15 14 12 14 14 15 15 14 15 15 15 13 14 18 19 19 19 19 19 19 20 19 19 17 17 18 17 17 18 19 19 18 18 17 16 15 14 13 12 11 11 11 10 10 9 10 10 9 9 8 6 6 6 6 7 6 5 5 6 6 6 6 7 8 8 7 6 5 6 7 6 6 5 4 6 6 6 6 6
11 11 10 9 11 10 12 12 11 10 9 12 11 7 8 11 11 10 16 15 13 14 14 14 14 13 14 14 14 14 15 17 17 19 20 20 20 20 21 20 20 19 17 18 18 18 18 18 18 18 19 18 17 16 14 13 13 12 11 11 10 10 10 11 11 10 9 9 8 7 7 8 8 8 6 6 6 7 8 8 9 10 9 7 7 7 8 9 7 6 5 4 6 6 6 6 7
11 11 9 8 8 7 12 12 11 11 10 13 13 6 6 12 14 13 16 16 15 14 14 14 13 13 13 13 14 14 15 16 18 20 20 21 20 20 20 21 21 20 18 19 20 20 19 18 18 18 19 19 18 17 15 14 13 12 11 11 10 10 10 11 11 11 10 10 9 8 8 8 9 9 8 8 8 8 9 10 10 10 9 8 8 8 8 8 8 7 4 4 6 6 6 6 7
9 10 9 9 8 6 10 11 11 11 10 13 13 6 5 11 15 15 15 15 16 14 14 15 14 15 14 13 14 14 14 17 20 21 21 22 21 20 20 21 21 21 19 19 20 21 20 19 18 17 18 19 18 17 17 15 14 13 11 11 11 10 11 11 10 11 10 11 10 9 9 9 9 11 11 12 11 9 10 13 11 8 8 9 8 8 9 8 8 7 3 5 7 6 6 6 7
10 10 9 10 10 7 7 10 12 12 11 13 14 7 4 8 15 16 16 16 16 14 14 15 15 15 15 13 13 13 14 16 18 20 22 22 22 20 19 20 21 22 21 19 19 21 20 19 18 18 18 19 19 18 17 16 14 13 12 12 11 11 11 11 11 11 11 11 11 10 10 10 10 12 13 13 12 10 10 12 12 11 8 8 9 10 10 9 7 5 4 6 6 5 5 6 7
9 10 10 11 12 10 8 10 13 14 12 13 14 10 4 7 14 15 15 17 15 13 14 15 14 14 14 13 13 14 14 15 16 19 23 23 22 21 20 20 22 22 21 20 19 20 21 20 20 19 18 18 19 18 17 17 15 14 13 13 12 12 12 12 11 11 11 11 11 10 9 10 11 14 14 13 11 10 10 10 12 13 10 8 10 11 10 8 5 5 5 6 4 4 5 6 6
12 12 9 10 12 12 11 10 12 15 13 13 14 12 7 8 13 13 14 16 15 13 13 14 15 14 14 14 14 14 15 15 16 19 24 23 22 22 21 20 22 22 22 21 20 20 20 20 20 19 18 18 18 18 17 17 16 15 14 14 14 14 13 13 12 11 11 11 11 10 10 11 11 12 13 11 11 10 9 10 10 11 10 10 11 12 10 6 4 4 5 4 4 4 4 5 5
15 13 11 11 11 11 12 12 13 15 14 13 14 13 10 10 12 12 12 13 13 13 13 13 14 14 14 14 14 14 15 15 17 21 24 24 23 22 21 21 22 22 22 22 21 20 20 20 20 19 19 18 18 18 18 17 16 16 15 15 15 15 15 14 13 13 12 11 11 10 11 12 11 11 11 10 11 11 10 10 9 9 12 12 10 10 8 3 2 3 4 4 4 5 4 4 4
17 14 13 13 12 10 12 14 14 15 13 12 14 13 13 13 13 13 12 12 13 13 13 12 13 14 14 15 15 15 16 15 17 22 24 24 24 23 22 21 22 23 22 22 22 22 21 21 20 20 20 19 19 18 18 17 17 16 16 17 16 15 15 14 14 14 13 12 11 11 11 10 11 12 12 11 11 11 9 8 8 10 12 12 9 6 3 1 1 2 2 3 4 4 4 5 4
18 14 12 12 13 11 12 14 16 15 12 11 14 14 15 14 13 14 14 14 14 14 14 13 14 15 14 15 17 16 15 14 16 20 22 25 25 24 23 22 23 24 24 24 24 23 22 21 21 21 20 20 20 19 18 18 18 17 17 17 16 15 15 15 14 14 13 12 10 10 10 10 11 11 11 11 10 9 8 7 7 7 8 7 4 1 1 2 1 1 2 3 3 3 4 5 4
17 13 12 11 11 11 12 14 18 14 9 9 14 14 13 14 14 14 15 14 13 14 14 13 14 14 14 15 16 16 15 15 16 18 21 25 26 26 25 23 24 25 24 24 24 24 23 23 22 21 21 21 21 20 19 19 18 17 16 15 15 15 14 13 12 11 11 11 10 10 10 10 11 10 8 8 7 7 6 6 5 4 3 3 3 2 2 1 0 1 2 2 2 4 5 4 3
16 14 11 10 12 12 9 9 15 14 9 9 12 12 10 13 14 14 15 14 13 14 15 14 14 14 15 16 16 16 17 17 17 18 20 23 25 27 26 24 25 25 25 25 25 25 24 24 23 23 22 21 21 21 21 20 18 17 16 15 14 13 12 11 11 10 10 11 11 11 11 10 11 10 7 6 6 5 5 6 5 3 4 4 3 2 1 1 1 2 2 2 3 5 5 5 3
16 17 14 12 14 16 10 9 12 11 11 11 11 10 9 12 14 14 14 14 15 15 16 15 14 15 15 16 16 17 18 17 18 19 19 20 22 26 27 26 26 26 26 26 26 26 25 25 25 24 23 22 21 21 21 20 18 17 16 15 14 13 12 11 11 11 11 11 11 11 11 10 9 9 7 6 6 6 5 5 5 5 6 5 3 2 2 2 2 3 2 2 3 5 5 3 2
16 19 18 17 15 17 15 12 12 9 11 13 13 9 8 12 15 14 12 14 16 15 15 16 14 14 15 15 16 17 18 18 18 19 19 19 22 25 28 28 27 26 26 26 27 27 25 25 25 25 23 22 22 21 21 21 19 18 17 16 16 15 14 13 13 12 11 11 11 11 11 10 8 7 7 7 7 6 5 5 5 6 6 5 3 2 2 3 3 4 3 3 4 3 4 5 3
13 17 20 21 18 17 17 14 12 9 9 12 14 11 8 10 14 15 14 15 17 16 16 17 14 14 15 15 15 16 18 18 18 19 20 20 22 24 26 29 29 27 27 27 26 26 26 25 25 25 24 23 22 22 22 21 20 19 19 18 17 15 14 13 13 12 11 11 10 10 10 10 9 8 7 7 7 6 5 5 6 7 6 5 4 3 3 4 4 3 4 4 3 2 2 3 4
12 16 21 22 21 20 18 15 11 9 9 11 15 13 9 8 11 15 17 16 17 17 17 16 14 16 17 16 16 17 18 19 18 19 20 21 22 23 26 29 30 28 27 27 26 26 27 26 25 26 25 23 22 22 23 22 21 19 19 17 15 15 14 13 12 12 11 10 9 8 8 8 9 8 7 7 7 6 6 6 7 7 6 5 4 4 4 5 4 3 3 3 2 2 2 3 4
15 18 20 20 21 21 19 15 10 10 10 10 14 15 11 8 9 12 16 18 18 18 17 17 18 19 18 17 18 19 19 20 19 20 21 21 22 25 28 29 30 29 28 27 27 26 26 27 26 25 25 24 23 23 23 23 22 19 19 17 15 14 14 13 12 12 11 10 9 8 7 7 8 8 7 7 7 7 7 7 8 7 6 5 4 5 5 5 4 4 4 3 3 3 3 3 4
15 19 20 18 18 19 19 15 11 11 11 11 14 15 10 8 9 11 13 14 15 15 15 16 17 16 15 15 17 19 19 19 19 20 21 22 24 27 28 29 30 30 28 28 27 26 26 27 26 26 26 25 24 23 23 23 23 20 19 18 17 15 14 13 12 11 10 10 9 9 8 8 8 8 8 8 8 8 9 8 8 8 7 6 6 6 5 5 5 5 5 5 5 4 3 4 4
16 17 18 17 16 15 14 13 11 10 10 14 18 19 14 10 10 11 11 12 13 13 12 13 13 13 15 16 16 19 18 17 18 19 20 22 25 28 28 29 30 29 28 28 28 27 26 27 27 27 26 25 24 24 24 24 23 22 20 18 18 17 15 14 13 12 11 11 11 11 11 10 9 8 8 8 9 10 10 10 9 8 8 7 7 6 6 6 6 7 6 6 6 5 5 5 4
18 15 14 15 13 10 10 11 12 12 11 15 20 22 19 13 10 10 13 17 16 13 12 14 15 16 17 17 17 18 17 16 18 18 19 20 22 25 26 28 30 30 29 29 29 28 27 27 28 28 27 26 25 25 25 24 23 22 21 19 19 18 17 15 14 13 14 13 12 12 12 11 10 9 9 9 9 10 11 11 10 9 8 7 7 6 6 6 6 6 6 5 6 6 6 5 5
17 14 13 14 11 8 10 11 12 12 12 14 18 20 18 13 12 13 15 17 17 15 14 16 17 19 19 18 18 17 17 18 18 18 18 19 19 20 23 26 29 30 31 31 30 29 28 28 28 29 29 28 26 25 25 25 24 23 22 21 20 19 18 16 15 15 15 14 14 13 12 12 11 11 11 11 11 11 11 11 10 9 9 8 8 7 7 7 6 5 5 6 6 6 6 6 5
17 15 13 13 12 10 11 12 12 12 12 15 17 16 14 11 13 17 17 16 15 15 17 17 16 16 18 19 16 14 15 17 17 18 19 19 19 20 22 26 29 30 32 32 31 30 29 28 29 29 29 29 27 26 26 25 25 23 22 22 20 20 19 17 17 16 16 16 15 14 13 13 13 12 12 12 11 11 11 12 11 10 10 9 8 7 7 7 7 6 6 6 7 7 6 6 6
17 17 15 15 13 11 11 11 11 12 12 15 17 14 11 10 11 14 17 17 14 12 15 16 14 14 12 15 15 13 15 17 17 19 19 20 21 21 23 27 29 30 32 33 31 31 29 28 29 29 29 29 28 27 26 26 25 24 23 22 21 20 19 18 17 17 17 17 16 15 15 14 14 13 13 13 12 11 11 11 11 10 10 8 8 8 7 7 8 8 7 7 7 7 6 7 7
14 14 15 16 14 12 11 11 12 13 12 12 13 11 9 10 10 9 11 15 16 14 15 17 17 16 11 9 13 13 14 15 17 19 20 21 22 22 25 28 30 31 32 33 32 32 31 29 29 30 29 29 28 28 27 26 25 25 24 23 23 21 20 19 18 18 18 18 18 17 17 16 15 13 13 12 12 12 12 11 11 10 10 9 9 9 9 8 8 8 8 8 9 8 8 8 8
10 12 17 16 15 15 13 12 13 14 13 11 11 11 11 13 13 11 12 14 15 15 17 19 19 16 11 8 11 14 15 17 19 20 20 21 21 22 26 29 30 32 32 33 33 33 33 31 30 31 30 29 29 28 27 26 25 25 24 24 23 23 22 21 19 19 19 19 18 18 18 17 15 14 12 12 12 12 12 12 12 11 11 11 11 11 10 9 9 9 10 10 10 10 9 9 9
10 12 17 16 16 17 13 11 12 13 13 11 13 17 14 12 10 10 16 18 15 15 18 19 19 15 12 11 12 14 16 17 20 21 19 19 21 22 26 30 32 33 33 34 34 34 34 33 31 32 31 30 30 29 28 27 26 25 25 25 25 24 24 23 21 19 18 18 18 18 18 16 15 13 12 12 12 12 12 13 13 12 13 13 13 13 12 12 11 10 11 11 11 10 10 10 10
20 13 14 14 14 15 12 11 12 13 13 10 15 19 15 12 10 10 17 20 18 19 20 19 18 16 14 14 12 13 14 15 18 19 18 18 20 21 26 30 32 33 33 33 34 34 33 33 32 32 31 31 31 29 28 27 26 25 24 25 26 25 25 24 22 20 19 18 18 18 18 16 15 13 12 13 14 13 13 14 14 14 14 15 15 14 14 13 13 12 11 12 12 12 11 11 10
24 19 14 13 12 13 13 13 12 12 12 11 14 16 12 11 12 12 16 18 19 20 20 18 18 18 15 13 12 12 14 15 16 16 18 19 21 24 28 31 32 33 33 33 34 34 33 33 32 31 30 30 30 29 28 27 27 25 24 25 26 26 26 25 23 21 20 19 18 17 17 17 16 15 14 15 16 15 16 16 17 17 16 17 17 17 16 15 14 13 12 13 13 13 13 12 11
18 18 16 14 11 12 14 15 13 12 12 10 11 12 10 10 12 14 16 15 15 17 18 16 17 19 14 11 13 13 13 15 15 15 18 20 21 24 29 32 32 33 33 33 34 34 33 33 33 33 31 31 31 31 29 28 27 26 25 27 27 28 27 25 23 22 20 19 17 17 17 17 18 18 18 18 18 19 21 22 21 21 20 20 21 21 19 18 17 16 16 15 14 14 13 13 12
16 16 17 16 13 12 14 14 13 14 13 11 10 11 11 9 11 13 13 12 13 15 17 16 17 16 10 10 14 15 14 15 16 16 16 18 19 21 26 30 31 31 33 34 34 33 33 33 32 33 33 32 32 32 31 29 27 27 27 28 28 28 27 25 24 22 21 19 18 18 19 19 20 21 20 22 23 25 26 27 25 24 23 24 25 24 22 21 21 21 20 18 16 15 13 13 13
Wind_Direction
186 189 193 203 212 222 207 235 272 250 258 109 84 91 91 97 113 107 99 107 95 78 69 71 70 64 88 93 94 88 56 50 48 83 105 121 136 131 124 121 126 128 126 130 135 140 140 131 129 127 122 122 123 122 123 127 131 131 132 133 133 127 121 120 120 124 124 122 117 111 106 101 97 94 91 88 87 85 84 84 83 80 76 75 72 70 67 64 63 58 55 53 54 53 53 53 50
186 193 199 209 216 223 206 209 281 291 255 86 83 86 94 98 103 94 85 89 81 78 75 80 90 94 102 99 101 94 65 63 73 85 103 124 127 121 124 127 129 128 130 134 136 141 145 137 131 128 124 124 125 122 122 127 133 134 134 136 137 132 126 125 127 127 124 121 117 111 106 102 98 95 93 90 88 87 86 85 83 80 76 74 71 69 64 59 57 54 53 51 51 50 50 51 48
189 197 204 211 216 224 240 199 222 200 114 73 85 87 86 78 83 89 87 86 88 94 91 97 100 91 95 93 83 80 81 84 92 98 112 125 123 123 130 132 130 128 131 136 139 141 145 142 133 129 128 129 128 126 125 128 133 134 137 139 139 136 133 132 132 129 125 122 117 111 106 102 99 95 94 92 90 88 86 85 83 79 74 71 68 64 58 51 48 44 45 47 49 49 48 48 46
198 204 210 214 214 224 243 218 227 114 83 77 84 86 94 95 92 91 92 95 103 106 96 104 94 63 73 84 78 79 90 96 102 105 116 122 122 128 131 132 131 129 131 137 140 138 143 144 136 133 134 136 135 133 133 131 132 134 137 139 138 139 138 137 134 130 127 124 118 111 106 102 100 97 94 91 89 86 85 85 83 79 74 70 66 59 50 42 35 30 30 35 39 42 45 42 43
218 220 222 233 231 225 254 230 145 45 67 102 95 84 104 104 99 100 103 109 113 106 101 112 97 74 66 70 85 89 98 104 106 103 108 115 121 128 130 134 132 132 135 137 140 139 143 144 141 139 139 141 141 139 138 135 134 135 137 138 138 139 140 139 137 134 131 127 119 112 107 103 101 98 94 90 87 86 86 85 83 79 75 68 62 55 42 35 25 17 19 25 27 31 34 31 34
229 231 225 235 271 270 271 248 90 58 41 85 112 96 106 105 106 110 110 110 101 98 107 97 92 98 75 62 77 80 101 112 111 109 114 121 125 129 132 137 133 133 135 136 140 141 144 147 147 146 143 144 147 145 140 137 135 135 137 138 139 141 141 141 141 138 135 129 121 115 109 106 102 99 95 92 89 88 87 84 82 77 73 66 59 49 34 27 18 13 17 20 19 19 19 16 22
241 255 228 230 267 255 256 56 78 74 44 67 111 113 109 110 116 119 120 115 106 101 97 83 93 109 101 94 87 75 95 109 113 115 120 125 128 131 135 137 133 135 139 139 139 141 148 152 152 151 147 147 150 148 144 139 137 136 137 139 141 144 145 146 143 138 136 132 126 120 115 111 106 101 98 95 93 91 90 87 84 79 71 64 55 43 27 19 10 8 11 11 12 9 9 9 13
246 274 245 272 264 232 214 64 67 74 68 66 85 98 106 115 126 128 128 121 115 111 107 107 109 107 102 111 102 84 91 98 107 116 123 127 129 133 136 135 134 136 139 141 139 145 154 156 156 152 148 149 149 149 148 143 139 137 139 140 142 146 148 148 142 136 136 134 129 124 121 116 110 105 103 100 96 94 94 91 88 81 70 61 47 35 15 6 2 0 2 1 2 0 3 2 4
226 220 248 274 260 202 110 88 90 83 83 84 86 92 101 117 131 128 125 116 113 117 120 115 109 109 104 103 102 98 96 102 112 120 126 129 132 134 135 138 137 135 134 137 139 146 155 159 159 153 150 150 148 149 149 146 143 141 142 142 142 146 147 145 140 137 137 136 133 129 127 123 115 111 109 105 100 98 96 91 86 76 61 48 31 21 8 3 1 360 0 359 2 5 4 358 1
228 219 243 266 271 108 101 92 94 87 83 88 98 107 111 120 128 126 119 115 120 118 111 98 99 114 109 104 105 106 112 119 122 124 129 132 134 135 137 139 138 136 135 138 140 146 156 162 162 158 157 154 150 150 151 150 146 146 145 143 143 145 144 143 141 140 140 138 134 133 132 128 121 117 115 113 106 102 99 90 83 68 41 22 14 15 12 9 7 8 8 6 11 14 9 6 11
283 251 244 267 347 61 84 91 96 93 93 93 97 109 114 119 129 126 117 116 120 114 108 101 111 118 107 101 100 107 121 129 129 128 132 134 135 136 138 139 139 138 136 139 141 146 155 161 163 162 164 159 155 153 154 153 148 149 149 146 147 148 146 145 144 142 142 139 139 141 140 140 135 130 126 121 115 110 102 93 82 56 22 0 2 12 13 11 13 17 20 19 21 20 17 20 22
268 262 257 287 70 64 70 90 96 103 110 107 101 106 107 120 136 128 124 119 117 119 122 121 124 122 111 107 113 125 131 134 132 132 134 135 135 136 138 139 140 137 136 140 142 146 151 158 163 164 167 164 158 156 157 155 151 154 151 150 151 150 149 146 146 144 144 145 148 152 151 154 150 146 140 131 125 116 102 93 70 38 12 347 352 7 9 11 18 23 26 25 24 27 26 27 23
215 260 267 328 22 63 87 92 108 128 117 100 98 107 118 128 125 119 121 125 131 128 121 126 133 131 123 120 126 135 137 137 136 135 137 136 136 137 139 140 138 134 137 140 143 147 151 156 159 163 168 165 161 160 161 158 156 157 154 155 156 155 154 150 152 152 153 154 156 159 158 159 157 158 154 144 132 118 101 91 51 20 359 340 346 2 7 6 14 23 27 26 26 30 28 22 15
246 266 273 31 348 36 82 102 141 144 104 97 105 114 128 113 105 117 130 131 126 113 112 130 136 128 127 132 138 144 143 142 141 139 138 136 137 138 139 139 134 132 138 143 145 148 153 155 155 161 164 162 162 163 163 161 160 162 159 159 161 161 160 159 160 161 164 162 161 162 159 160 161 163 166 155 143 124 78 64 18 358 340 336 345 356 2 358 6 21 23 23 24 24 22 17 10
232 267 286 352 176 111 67 78 118 110 104 109 113 119 113 89 108 132 142 132 100 97 117 134 133 126 141 150 150 147 144 144 144 140 137 136 137 137 139 139 134 136 142 145 148 150 153 154 154 159 159 160 161 162 165 165 165 166 164 164 168 167 166 167 167 169 170 169 170 168 164 165 169 173 187 193 194 187 91 84 314 327 325 334 347 350 354 354 2 16 19 21 19 15 16 20 17
240 265 279 263 191 149 111 91 32 79 110 111 116 135 116 100 130 126 116 124 110 120 141 138 121 121 148 152 144 140 143 146 145 140 137 136 136 137 139 139 138 141 145 147 149 150 152 152 154 156 158 162 162 163 166 169 170 168 168 171 173 171 172 173 173 176 175 177 177 173 174 170 177 186 207 210 226 249 132 161 272 306 318 332 345 347 352 357 1 8 15 19 13 10 12 24 25
252 262 269 237 180 141 114 109 68 88 108 114 132 150 125 117 135 99 93 126 128 145 152 133 112 123 142 139 138 139 143 146 145 142 139 139 140 141 143 143 144 144 146 148 148 149 152 154 155 156 160 165 164 165 166 169 173 170 172 176 175 176 178 180 181 183 182 185 186 185 183 176 190 192 167 192 231 273 242 241 277 304 317 328 342 348 352 357 358 2 8 11 11 12 17 19 9
271 288 287 277 96 93 110 112 93 108 116 123 139 148 133 132 137 121 146 145 133 151 144 127 123 129 126 126 137 141 144 147 147 147 144 147 149 148 149 151 152 149 150 152 152 154 155 156 158 159 161 165 165 165 165 168 172 171 176 178 180 182 184 187 187 189 190 193 199 195 189 186 201 210 167 189 219 222 255 289 315 314 317 324 338 351 357 359 358 5 6 3 9 13 23 18 345
268 304 288 280 93 75 102 109 100 120 123 125 136 142 137 136 141 153 174 148 142 159 145 143 138 131 126 129 141 145 148 152 152 153 151 154 155 154 154 155 158 156 157 157 158 160 159 160 162 162 162 164 165 164 165 168 171 172 177 181 181 185 187 191 191 194 196 198 202 200 200 194 187 198 190 200 209 213 247 295 336 324 331 341 350 1 5 5 1 12 10 2 8 7 10 359 319
210 88 278 268 101 102 117 111 111 119 125 135 140 141 137 134 145 173 171 145 155 167 150 154 144 139 141 137 144 150 154 157 158 158 156 158 158 159 158 157 161 161 162 160 160 163 163 164 163 164 163 164 166 165 168 169 173 175 179 182 182 185 188 191 195 199 202 201 203 204 210 200 182 191 204 218 221 228 249 282 321 317 359 3 9 356 343 0 353 359 6 356 351 345 340 321 317
190 159 238 204 86 238 129 132 129 120 137 142 142 148 140 136 149 172 168 152 164 170 157 159 151 150 150 144 149 158 161 159 162 163 160 161 161 162 161 161 163 163 165 161 162 165 166 167 166 165 165 167 170 169 172 172 176 178 180 183 184 187 188 192 196 198 203 203 205 209 212 205 200 208 212 237 234 224 241 256 277 278 335 337 359 308 297 338 327 328 341 331 321 317 320 316 319
211 212 244 105 106 260 110 143 136 123 157 148 151 157 133 145 160 166 179 174 170 163 158 160 156 156 155 151 153 160 165 162 165 167 163 165 167 167 164 165 164 162 168 165 165 167 168 170 168 168 169 171 174 175 175 174 179 181 182 185 185 189 189 192 196 198 202 202 207 213 216 210 211 221 216 229 228 228 238 236 248 246 261 288 308 263 272 320 307 313 323 319 316 318 322 318 316
233 233 249 262 211 272 76 153 141 133 174 151 153 147 131 167 164 161 189 170 130 148 149 155 155 156 158 157 157 162 168 167 169 169 168 170 171 171 168 168 167 165 171 169 168 170 170 173 172 172 173 175 178 179 178 177 183 186 185 187 186 189 190 192 197 199 199 199 208 215 223 222 218 226 218 215 225 238 240 233 241 230 231 247 233 254 276 308 305 314 317 319 321 319 321 313 312
228 244 224 232 223 220 244 189 149 151 177 144 153 151 149 184 157 158 189 138 91 135 139 150 151 156 162 161 163 165 168 170 172 171 172 174 174 174 173 171 169 169 172 170 171 173 175 176 176 177 177 180 183 182 183 183 188 190 187 188 190 191 192 196 199 198 195 197 208 215 227 235 235 236 224 221 231 234 237 244 254 245 242 245 238 274 286 295 301 307 309 316 318 317 318 312 317
215 245 234 219 221 216 215 229 177 159 174 153 168 166 155 179 149 161 184 136 123 142 137 148 151 159 167 164 168 168 169 174 173 174 175 176 178 177 176 175 172 173 175 174 175 176 178 178 178 180 181 183 186 186 190 190 192 193 190 191 194 195 197 201 199 198 198 201 209 213 223 236 244 249 242 241 245 241 242 246 251 251 253 260 270 279 280 290 294 295 303 310 314 313 315 321 322
207 231 240 223 226 227 221 227 198 169 184 166 177 178 157 170 147 161 180 140 143 154 141 150 155 163 170 167 172 169 172 177 176 178 176 176 182 179 178 180 177 178 178 178 179 179 180 180 181 184 184 186 188 191 194 195 194 195 195 195 197 198 203 206 201 204 204 205 210 206 213 229 242 252 254 255 255 254 248 245 249 251 246 249 260 268 273 277 280 288 294 300 310 309 314 326 319
202 212 238 234 232 229 224 228 204 185 185 173 184 185 165 173 164 173 170 142 150 159 151 158 160 167 173 171 172 171 175 180 179 181 178 178 184 181 181 184 181 180 180 181 183 182 183 183 185 187 186 187 190 193 196 197 196 197 198 199 201 201 206 209 207 213 212 212 209 190 200 223 237 249 261 262 254 257 252 249 249 249 251 252 259 266 269 267 275 284 282 294 304 303 312 319 312
223 203 225 223 229 229 221 223 207 199 185 175 189 195 176 174 192 189 156 147 161 163 160 164 165 168 174 174 171 172 179 182 181 183 183 181 184 183 184 186 185 184 183 186 186 182 185 187 188 188 188 189 192 196 196 198 199 200 202 202 206 205 206 211 213 217 217 218 209 187 198 218 228 239 256 253 248 256 256 256 255 255 258 258 266 268 262 261 267 269 264 288 296 298 309 308 306
249 234 233 217 218 224 220 218 206 203 182 167 186 203 186 178 207 193 150 153 170 169 166 166 170 169 172 176 171 174 183 185 184 187 188 183 185 188 189 188 187 188 186 188 189 185 187 189 189 190 190 190 194 198 196 199 201 200 204 207 210 209 210 216 219 220 219 219 213 201 203 211 222 230 239 238 242 254 255 255 256 255 256 256 260 260 261 261 255 260 264 274 288 299 308 309 315
239 238 244 230 218 212 212 213 203 199 167 163 190 208 191 187 214 194 150 160 177 173 172 170 174 170 172 178 173 178 185 188 188 189 190 187 188 191 192 191 189 190 188 188 191 191 190 190 191 192 192 193 194 199 199 200 202 202 205 208 210 211 215 220 221 223 221 221 219 210 209 218 227 227 227 231 239 254 255 254 253 252 254 251 247 251 259 262 258 266 274 281 292 298 305 315 317
230 231 233 235 237 209 196 198 196 190 156 169 197 215 207 192 203 190 154 166 181 177 176 174 177 173 175 180 177 181 185 190 192 191 192 189 190 193 193 193 192 193 191 189 192 193 194 193 193 193 194 195 196 200 202 202 204 206 207 208 210 212 216 220 221 223 221 222 224 217 213 218 226 225 223 231 242 255 260 258 255 254 252 241 247 256 250 257 275 277 274 284 286 294 308 314 311
222 229 224 219 235 219 184 179 188 187 158 179 202 218 213 183 184 178 161 173 180 180 181 177 180 178 178 183 183 185 184 190 194 195 195 191 192 194 193 193 193 195 194 192 191 192 197 196 196 195 194 196 198 201 202 204 206 209 213 213 213 215 219 222 222 224 222 222 225 222 215 208 220 233 235 239 246 254 260 263 261 258 252 242 249 256 246 254 275 275 287 290 285 302 312 306 310
213 224 227 213 212 213 185 170 184 188 165 183 206 222 225 171 166 163 166 178 180 184 185 180 184 181 180 185 187 188 185 189 195 198 197 193 194 193 192 193 193 195 194 194 191 191 197 197 198 200 196 195 198 200 201 204 207 210 215 217 218 219 221 224 222 223 223 222 223 223 215 204 215 238 246 248 252 252 255 263 262 253 250 251 248 248 253 260 264 268 287 281 286 311 305 304 314
207 213 230 228 210 202 189 174 186 187 174 186 204 219 229 160 154 158 173 183 182 187 186 183 188 184 182 186 189 191 188 190 195 198 197 195 195 193 192 193 193 194 193 194 193 191 196 197 198 202 201 197 196 199 202 204 207 210 216 219 221 222 223 227 224 223 224 222 223 221 211 206 218 239 251 255 251 249 250 255 257 249 245 251 248 248 257 266 272 278 277 274 289 305 300 311 318
212 205 216 236 222 204 187 178 189 190 183 188 201 215 214 158 153 164 180 186 187 191 189 188 190 188 186 188 193 192 191 196 196 196 197 195 194 193 192 193 192 192 193 194 193 191 195 197 197 199 201 199 197 198 200 204 208 210 215 219 221 222 225 226 225 223 223 220 221 217 209 211 221 236 248 249 239 238 243 247 251 247 244 246 249 253 256 264 292 288 281 292 300 288 292 312 314
225 214 210 223 229 216 192 181 185 192 195 194 200 212 209 179 167 173 184 191 195 196 195 194 191 191 190 191 198 195 194 198 195 196 197 194 194 193 191 192 192 192 193 192 192 192 194 196 197 197 199 201 197 196 200 203 207 210 214 218 220 221 222 223 223 222 221 222 222 214 208 214 221 224 229 232 231 232 238 242 243 239 241 245 250 261 265 275 297 281 289 302 292 281 278 285 291
234 225 217 219 229 225 198 183 177 189 204 202 199 209 213 200 179 178 191 197 199 200 201 200 195 194 194 196 200 198 199 199 194 194 196 195 194 192 191 192 191 192 193 193 193 194 195 196 198 197 198 200 199 198 200 202 205 208 211 216 217 217 219 220 221 222 224 227 224 213 209 214 221 224 222 221 224 227 231 238 242 244 246 247 249 261 279 0 305 289 305 287 275 281 272 257 262
238 234 226 222 227 228 209 185 170 188 208 203 202 208 214 210 192 185 195 201 202 201 200 203 204 200 196 199 202 201 199 200 196 191 194 197 194 191 192 192 192 192 193 194 194 195 196 198 199 199 197 199 201 202 202 204 207 208 211 216 219 219 220 221 222 225 227 229 221 211 213 214 216 222 222 221 220 218 224 231 237 248 247 238 226 193 91 67 25 321 295 267 258 262 266 269 271
238 238 231 227 224 227 228 193 166 178 207 203 206 211 211 210 206 199 195 199 206 206 203 204 206 207 203 199 201 204 201 200 199 192 191 196 195 193 192 193 194 194 194 195 195 195 197 199 200 200 199 199 201 203 204 206 209 210 215 218 220 224 224 222 225 226 226 227 219 213 217 214 213 215 214 218 220 217 226 230 224 234 220 170 144 125 98 58 21 286 259 262 266 249 232 235 266
233 235 228 229 224 219 228 188 159 171 200 212 215 217 214 208 210 210 201 198 204 208 211 209 206 209 210 205 202 203 203 201 201 196 192 195 196 194 193 194 195 195 195 195 196 197 197 199 199 199 201 201 201 203 205 209 211 212 217 220 221 228 230 224 224 223 222 224 220 216 214 210 212 217 214 216 222 222 230 233 221 201 171 150 150 156 197 222 191 214 235 234 272 276 250 201 193
229 233 229 227 223 222 220 169 159 186 204 218 226 225 222 213 212 212 204 203 206 208 213 213 210 210 210 211 207 205 205 203 202 200 194 193 196 195 194 194 195 196 197 196 197 197 198 199 199 199 200 202 202 203 205 208 210 211 213 217 219 223 225 220 219 218 219 222 221 219 213 209 211 214 213 214 218 220 221 221 205 180 168 163 175 195 215 215 204 213 215 205 239 283 293 264 213
225 229 233 234 224 225 225 180 168 205 211 211 220 227 228 215 216 217 209 208 207 206 212 213 213 214 213 214 212 207 205 203 203 203 198 194 196 197 195 194 196 198 197 198 198 198 199 198 198 199 200 202 203 203 204 206 208 209 208 209 212 215 217 216 217 220 220 223 225 222 216 211 209 206 205 206 207 206 205 198 183 175 174 176 189 205 197 201 220 224 215 217 228 253 287 291 284
224 219 224 237 237 231 232 204 187 213 216 207 213 225 237 217 215 220 219 216 208 205 213 212 210 215 218 219 216 210 206 203 201 202 201 197 196 197 196 195 198 199 198 198 200 199 199 198 197 198 199 201 204 203 204 205 206 209 210 212 215 217 221 219 219 224 224 224 222 216 211 204 200 204 201 195 193 194 193 187 180 179 186 193 203 209 204 217 227 217 211 222 224 223 238 265 275
227 218 214 225 236 238 238 224 209 217 215 212 217 225 239 232 221 218 216 218 214 209 209 209 211 216 218 220 222 218 209 202 199 199 201 199 198 198 198 197 198 200 199 199 200 200 199 198 197 198 199 201 203 203 203 203 205 207 210 215 217 219 224 223 219 220 219 219 216 208 204 194 188 195 195 188 189 192 189 187 185 188 197 204 208 212 220 233 233 203 206 220 203 203 214 245 280
225 227 223 219 224 235 243 237 221 218 220 220 218 223 235 237 230 221 214 215 218 214 205 205 214 217 214 214 223 227 215 203 199 197 199 200 199 199 198 197 198 199 200 198 199 199 198 198 197 197 199 201 201 201 201 202 203 205 207 210 214 218 222 223 219 214 210 209 209 204 197 189 183 187 191 190 192 195 193 192 191 195 202 204 213 226 228 226 223 214 215 217 210 217 213 232 266
224 230 236 231 221 223 234 238 226 220 229 233 223 221 233 239 229 222 217 216 217 214 208 210 212 211 211 212 222 231 220 205 201 197 196 200 200 199 199 198 198 199 199 198 198 198 197 197 197 197 198 199 200 200 199 201 202 203 206 208 211 215 216 218 218 211 204 201 202 199 193 191 187 187 191 195 201 204 201 198 196 199 205 211 222 236 235 223 214 217 224 224 219 223 214 216 235
227 229 236 239 230 224 230 234 229 223 227 231 226 223 230 242 230 217 220 228 225 217 214 216 208 202 208 209 216 229 224 207 203 199 195 198 199 199 198 197 197 198 198 197 196 197 197 196 196 197 198 198 199 199 199 201 202 204 206 206 208 213 213 213 212 209 204 199 200 200 197 194 190 193 198 199 205 210 208 205 204 207 212 220 229 235 237 233 219 208 214 224 220 219 220 216 225
224 226 230 234 232 231 237 232 226 229 228 224 223 223 227 236 233 217 219 226 223 216 218 219 207 203 208 206 206 220 226 214 205 201 193 193 197 198 197 196 196 196 197 197 196 196 196 196 196 196 198 199 199 199 199 200 203 204 206 206 207 211 212 211 210 208 206 203 202 202 197 195 197 203 207 204 205 208 208 208 210 214 217 221 229 229 228 235 233 214 204 216 223 217 220 219 221
218 221 224 227 224 222 229 228 224 231 233 225 224 226 229 232 235 230 226 225 217 207 215 222 214 204 199 198 200 207 217 213 205 202 195 190 193 195 196 194 193 194 196 197 196 195 196 196 196 196 197 199 198 199 200 200 202 204 205 206 207 209 210 211 212 210 208 207 204 201 196 195 198 202 205 207 207 205 204 206 210 214 215 218 225 225 223 226 233 234 216 214 224 219 219 221 221
211 214 217 222 220 218 222 224 226 230 230 226 227 233 237 233 232 229 224 224 219 204 209 221 227 216 193 185 191 201 213 213 207 203 196 190 192 192 193 193 192 194 195 196 196 195 195 195 196 197 197 198 198 200 201 201 202 203 203 204 206 207 208 211 214 214 212 209 205 203 199 197 198 200 203 205 205 204 203 203 204 209 213 217 220 221 224 222 221 229 224 217 223 221 221 227 225
212 211 216 224 221 221 225 219 224 233 233 228 225 228 234 232 230 224 217 219 221 212 209 214 227 235 209 178 177 193 212 215 211 207 199 193 192 190 191 192 192 193 193 195 196 194 194 195 195 197 197 197 198 199 201 202 202 202 201 203 205 206 207 209 214 216 215 212 208 205 202 201 202 202 201 199 199 203 205 201 199 206 213 215 214 215 222 223 219 220 220 218 223 222 222 232 232
210 207 219 225 216 222 234 228 228 236 237 232 226 224 229 233 231 219 214 219 220 220 220 217 223 232 224 185 175 190 208 213 212 210 201 196 191 188 191 191 191 192 192 193 194 193 194 194 194 196 197 197 197 198 200 201 201 201 200 202 204 204 205 207 211 215 215 214 212 208 206 205 205 203 200 197 196 200 204 204 203 205 208 207 207 210 215 219 217 217 218 218 224 225 223 230 237
199 205 222 222 212 222 236 237 236 238 238 235 232 229 224 228 225 209 215 222 216 219 222 222 229 229 215 195 187 191 203 210 211 209 201 196 192 189 190 191 190 190 191 192 192 192 193 192 193 195 195 196 196 197 199 200 200 200 200 201 203 204 204 205 209 211 212 214 213 210 209 208 207 205 202 199 196 196 201 204 203 201 200 201 202 203 206 212 214 217 219 220 225 228 226 227 235
212 208 217 216 217 225 233 236 232 233 237 234 234 236 228 223 218 204 222 224 207 215 224 223 230 226 204 204 205 197 203 213 211 204 199 197 194 191 191 191 192 191 190 190 190 190 192 192 193 194 193 194 195 196 197 198 198 199 198 198 201 203 204 205 207 207 208 211 210 209 209 209 208 206 203 198 192 192 200 202 199 197 196 196 199 199 199 202 208 215 222 225 229 232 232 232 235
232 230 214 209 217 220 220 229 227 229 236 232 235 240 237 233 221 198 223 227 207 211 224 224 231 228 203 197 203 198 202 217 214 200 195 198 197 194 194 193 192 191 189 189 189 189 191 192 193 194 194 194 195 196 197 196 197 197 197 197 199 202 203 204 205 205 205 207 208 207 206 207 208 203 195 188 185 188 195 198 197 197 197 195 196 198 197 199 203 211 220 226 229 231 233 236 238
228 238 224 212 220 220 218 225 227 231 237 233 234 239 238 240 230 205 217 226 212 213 221 221 232 237 215 190 191 196 199 211 214 201 195 197 197 197 196 194 193 191 189 188 189 190 192 192 193 194 195 194 195 197 197 196 196 197 196 196 198 201 201 201 202 202 203 204 206 204 203 204 203 197 188 184 185 188 191 195 197 199 200 197 195 197 197 196 198 205 215 224 228 228 228 232 237
212 226 225 216 215 220 224 225 222 227 236 234 232 238 235 237 235 217 214 219 216 216 216 210 220 232 222 197 193 191 194 206 208 204 201 198 198 198 197 196 194 191 189 189 190 192 193 194 194 194 195 195 196 197 197 196 195 195 195 194 197 198 198 198 199 200 201 203 205 204 203 202 197 193 189 186 185 188 191 194 197 199 200 199 197 197 195 192 193 200 209 219 227 230 228 229 233
210 213 221 223 217 216 223 225 220 222 231 236 235 240 236 228 233 224 212 215 223 220 212 202 207 218 220 222 209 181 180 204 205 203 208 203 199 199 197 197 195 192 191 190 191 193 195 196 196 196 197 198 199 198 197 195 193 193 194 194 196 196 195 196 196 198 200 202 204 204 201 197 193 190 189 189 192 195 196 197 196 196 199 201 199 196 194 192 193 198 204 210 218 226 231 233 237